Location: Newark
(42.8481°N, 0.4872°E)
Time: 07:56:47
(UTC+00:00)

Transit 2A Rocket - Pass Details

Date: 28 October 2020
Orbit: 588 x 914 km, 66.7° (Epoch: 29 November)

Event Time Altitude Azimuth Distance (km) Brightness Sun altitude
Rises 10:45:18 0° 242° (WSW) 3,540 8.6 32.3°
Reaches altitude 10° 10:48:10 10° 252° (WSW) 2,597 7.9 32.5°
Maximum altitude 10:53:28 31° 313° (NW) 1,533 6.4 32.7°
Drops below altitude 10° 10:58:37 10° 14° (NNE) 2,511 7.3 32.9°
Sets 11:01:21 0° 25° (NNE) 3,406 7.9 33.0°
